TITAN 3A TRANSTAGE R/B, 1359

Orbit data source: Space-Track

TITAN 3A TRANSTAGE R/B, 1359 is space debris in LEO originally from a launch on Thu, 06 May 1965 UTC via a TITAN IIIA launch vehicle from the Air Force Eastern Test Range (AFETR). Debris objects in space refer to the collection of defunct objects orbiting the Earth. Examples of debris include non-operational satellites, rocket bodies, and fragments generated from explosions, collisions, or faulty payload assembly.

Loading next visibility...
Identifier
1359, 1965-034A
Orbit
LEO
Country
Flag of USUS
Related business
Manufacturer
Martin Marietta
Mission
Spacecraft
Bus & Motor
Unknown
Mass
2,302 kg wet, 124 kg dry
Launch date (UTC)
1965-05-06 (61 years ago)
Launch vehicle
TITAN IIIA
Launch site
Air Force Eastern Test Range (AFETR)
Object type
Payload
Rocket body
Debris
Shape & HBR
Unknown
Radar Cross Section
Large (>1 m²)

Expand to show TLE details & history
Last TLE update: 14 hours ago

TLE from 14 hours ago
0 TITAN 3A TRANSTAGE R/B
1 01359U 65034A   26062.41869062  .00000000  00000-0 -82331-3 0  9999
2 01359  32.1212 102.6804 0495170  66.6737 298.5051  9.17133293 38945
Epoch: 2026-03-03T10:02Z
TLE epoch observation values (Epoch: 2026-03-03T10:02:54.869Z)
Latitude
Longitude
150.75375°
Altitude
3,052.775 km
Speed
6.573 km/s
True Right ascension
06h 50m 43s
True Declination
0° 00' 00"
Sunlit
Object was in daylight at epoch
Visualization orbit readout
Latitude
Unknown
Longitude
Unknown
Altitude
Unknown
Speed
Unknown
Apparent Right ascension
Unknown
Apparent Declination
Unknown
Sunlit
N/A
Visualization observer readout
Local Sidereal Time
04:11:56
Azimuth
Unknown
Elevation
Unknown
Doppler factor
Unknown
Orbital elements
Apogee altitude
3,742.835 km
Perigee altitude
2,787.805 km
Semi-major axis
9,643.457 km
Eccentricity
0.04952
Inclination
32.1212°
RAAN
102.6804°
Arg. of periapsis
66.6737°
True anomaly
293.37404°
Mean anomaly
298.5051°
Eccentric anomaly
295.95412°
Mean motion
2.29189 °/min
Orbital period
157.08 mins
BSTAR
-0.00082331
Loading maneuver chart data...
Computing Atmospheric mass density...
Loading historical data...
Loading historical data...
Loading historical data...
Loading historical data...
Loading historical data...
Loading historical data...
Loading historical data...
Other satellites on launch #34 in the year 1965 (1965-05-06 UTC)

Documentation

Showing up to 5 results
|